STARLINK-1363 (45568 NORAD) Tracking and Keplerian Element Data

This shows tracking and keplerian element data for the satellite.

Feedback or suggestion? Click here.




ElementValue
Catalog45568
NameSTARLINK-1363
Epoch Orbit182
Epoch Day188.91667824
Epoch Year2020
RAAN30.5042
Inclination52.9966
Eccentricity0.0001151
Argument of Perigee70.4218
Mean Anonmoly235.3777
Mean Motion15.53406007
Decay Rate-0.01175381
L11 45568U 20025AP 20188.91667824 -.01175381 00000-0 -20303-1 0 9996
L22 45568 52.9966 30.5042 0001151 70.4218 235.3777 15.53406007 1827

Live tracking and technical data element details for STARLINK-1363 (NORAD 45568). STARLINK-1363 can be tracked NOW for your location showing map with azimuth and elevation plus other details from your city location.

Track the satellite on the map from your city or location and see movement details for azimuth, elevation, latitude, longitude, range, height, and movement on the map or in text.







IsCatalogInMostPopularTable: catalog: 45568, numindb: 15
Update: records affected: 1



GetName: 45568 STARLINK-1363

Hit Count: updated at: Wed, 08 Jul 2020 05:38:13 GMT